Regional Weather Roundup
Issued by NWS Raleigh/Durham, NC

Home | Current Version | Previous Version | Text Only | Print | Product List | Glossary On
Versions: 1 2 3 4 5 6 7 8 9 10 11 12 13 14 15 16 17 18 19 20 21 22 23 24 25 26 27 28 29 30 31 32 33 34 35 36 37 38 39 40 41 42 43 44 45 46 47 48 49 50
000
ASUS42 KRAH 012310
RWRRAH
NORTH CAROLINA WEATHER ROUNDUP
NATIONAL WEATHER SERVICE RALEIGH NC
700 PM EDT WED JUL 01 2015

NOTE: "FAIR" INDICATES FEW OR NO CLOUDS BELOW 12,000 FEET WITH NO
SIGNIFICANT WEATHER AND/OR OBSTRUCTIONS TO VISIBILITY.

NCZ001-053-055-056-065-067-020000-
WESTERN NORTH CAROLINA

CITY           SKY/WX    TMP DP  RH WIND       PRES   REMARKS
ASHEVILLE      CLOUDY    73  64  73 N8        30.05S
JEFFERSON      HVY RAIN  67  58  74 W16       30.07R
MORGANTON      LGT RAIN  76  72  88 W3        30.02S
HICKORY        CLOUDY    75  70  84 N3        29.97R HAZE
RUTHERFORDTON  CLOUDY    78  70  76 SW3       29.99R
MOUNT AIRY     CLOUDY    80  65  60 SW6       29.96R
BOONE          RAIN      67  61  81 W7        30.08S
$$

NCZ021-022-025-041-071-084-088-020000-
CENTRAL NORTH CAROLINA

CITY           SKY/WX    TMP DP  RH WIND       PRES   REMARKS
CHARLOTTE      CLOUDY    82  67  60 SW6       29.96S
GREENSBORO     CLOUDY    84  62  47 S7        29.92S
WINSTON-SALEM  CLOUDY    78  65  63 W13G23    29.95R
RALEIGH-DURHAM CLOUDY    83  68  60 SW8       29.92S
FORT BRAGG     MOSUNNY   83  71  66 VRB6      29.93R
FAYETTEVILLE   MOSUNNY   82  71  69 S7        29.94R
BURLINGTON     CLOUDY    83  70  64 S8        29.92R
LAURINBURG     PTSUNNY   82  71  69 SW6       29.95R HAZE
$$

NCZ011-015-027-028-043-044-047-080-103-020000-
NORTHEASTERN NORTH CAROLINA

CITY           SKY/WX    TMP DP  RH WIND       PRES   REMARKS
ROCKY MT-WILSO SUNNY     85  69  58 S7        29.91R
GREENVILLE     SUNNY     82  72  69 SW7       29.94R
WASHINGTON     SUNNY     83  70  63 SW9       29.92S
ELIZABETH CITY SUNNY     83  69  62 SW5       29.90R
MANTEO         MOSUNNY   84  75  74 SW15      29.91S
CAPE HATTERAS  SUNNY     80  74  81 SW10G20   29.93S
$$

NCZ078-087-090-091-093-098-101-020000-
SOUTHEASTERN NORTH CAROLINA

CITY           SKY/WX    TMP DP  RH WIND       PRES   REMARKS
LUMBERTON      MOSUNNY   83  73  72 S6        29.94S
GOLDSBORO      MOSUNNY   83  71  68 SW6       29.92R
KENANSVILLE    SUNNY     80  70  72 SW3       29.95S
NEW BERN       SUNNY     84  73  69 W7        29.93S
CHERRY POINT   SUNNY     82  73  74 S9        29.94S
BEAUFORT       PTSUNNY   80  75  84 SW17      29.94S
JACKSONVILLE   SUNNY     83  72  69 W7        29.93R
WILMINGTON     SUNNY     82  73  74 S10       29.94S
$$




USA.gov is the U.S. government's official web portal to all federal, state and local government web resources and services.